EW4692 Weather Reports


time (UTC)temp
C
wind
direction
speed
KPH
gust
KPH
rain 1hr
cm
rain 24hr
cm
rain mn
cm
humidity
%
barometer
mb
20260506144705 23 277 14.5 27.4 0.00 0.10 0.00 27 1009.9
20260506144501 23 325 11.3 27.4 0.00 0.10 0.00 27 1010.2
20260506144205 23 252 16.1 27.4 0.00 0.10 0.00 26 1009.9
20260506143705 23 240 11.3 24.1 0.00 0.10 0.00 27 1009.9
20260506143205 23 273 8.0 20.9 0.00 0.10 0.00 28 1010.0
20260506143003 23 161 8.0 19.3 0.00 0.10 0.00 28 1010.4
20260506142705 23 327 9.7 25.7 0.00 0.10 0.00 28 1010.0
20260506141705 23 213 12.9 29.0 0.00 0.10 0.00 28 1010.0
20260506141605 23 305 11.3 29.0 0.00 0.10 0.00 27 1010.4
20260506141500 23 255 12.9 29.0 0.00 0.10 0.00 27 1010.4
20260506141205 23 240 16.1 29.0 0.00 0.10 0.00 26 1010.0
20260506140205 24 294 14.5 25.7 0.00 0.10 0.00 25 1010.2
20260506140124 23 277 16.1 24.1 0.00 0.10 0.00 25 1010.5
20260506134706 24 37 12.9 30.6 0.00 0.10 0.00 25 1010.3
20260506134600 23 240 6.4 29.0 0.00 0.10 0.00 25 1010.5
20260506133705 24 262 16.1 30.6 0.00 0.10 0.00 26 1010.3
20260506133206 24 325 14.5 29.0 0.00 0.10 0.00 26 1010.3
20260506133104 23 321 14.5 30.6 0.00 0.10 0.00 26 1010.6
20260506132705 24 277 14.5 27.4 0.00 0.10 0.00 28 1010.3
20260506132206 24 276 16.1 27.4 0.00 0.10 0.00 28 1010.4
20260506131705 24 246 14.5 29.0 0.00 0.10 0.00 28 1010.3
20260506131558 23 315 14.5 24.1 0.00 0.10 0.00 28 1010.6
20260506130706 24 295 12.9 29.0 0.00 0.10 0.00 30 1010.5
20260506130206 23 276 12.9 29.0 0.00 0.10 0.00 28 1010.5
20260506130056 23 248 17.7 30.6 0.00 0.10 0.00 29 1010.8
20260506125705 23 211 12.9 29.0 0.00 0.10 0.00 29 1010.5
20260506125206 23 258 14.5 32.2 0.00 0.10 0.00 28 1010.7
20260506124705 23 284 14.5 32.2 0.00 0.10 0.00 29 1010.6
20260506124557 23 281 12.9 30.6 0.00 0.10 0.00 29 1010.9
20260506124205 23 333 16.1 32.2 0.00 0.10 0.00 29 1010.6
20260506123707 23 279 16.1 27.4 0.00 0.10 0.00 29 1010.7
20260506123053 23 249 16.1 27.4 0.00 0.10 0.00 29 1011.1
20260506122206 23 284 17.7 27.4 0.00 0.10 0.00 30 1010.8
20260506121706 23 304 16.1 33.8 0.00 0.10 0.00 31 1010.7
20260506121552 22 343 16.1 30.6 0.00 0.10 0.00 30 1011.0
20260506121205 23 292 17.7 33.8 0.00 0.10 0.00 30 1010.7
20260506120706 23 250 16.1 33.8 0.00 0.10 0.00 30 1010.8
20260506120229 23 244 16.1 33.8 0.00 0.10 0.00 30 1010.8
20260506120050 22 207 14.5 30.6 0.00 0.10 0.00 30 1011.1
20260506115705 23 305 17.7 33.8 0.00 0.10 0.00 30 1010.9
20260506115205 23 264 17.7 33.8 0.00 0.10 0.00 31 1010.9
20260506114705 22 285 20.9 37.0 0.00 0.10 0.00 30 1011.0
20260506114556 22 252 17.7 33.8 0.00 0.10 0.00 31 1011.3
20260506114206 22 275 20.9 38.6 0.00 0.10 0.00 31 1010.9
20260506113706 22 279 20.9 38.6 0.00 0.10 0.00 32 1011.0
20260506113205 22 263 20.9 33.8 0.00 0.10 0.00 31 1011.0
20260506113052 22 284 25.7 40.2 0.00 0.10 0.00 30 1011.4
20260506112705 23 281 16.1 29.0 0.00 0.10 0.00 30 1011.0
20260506112225 23 255 14.5 29.0 0.00 0.10 0.00 31 1011.0
20260506111705 22 281 16.1 29.0 0.00 0.10 0.00 32 1011.0
20260506111551 22 277 17.7 29.0 0.00 0.10 0.00 32 1011.5
20260506111205 22 263 17.7 30.6 0.00 0.10 0.00 33 1011.1
20260506110705 22 246 19.3 30.6 0.00 0.10 0.00 32 1011.2
20260506110206 22 309 17.7 32.2 0.00 0.10 0.00 32 1011.1
20260506110045 22 200 16.1 30.6 0.00 0.10 0.00 32 1011.5
20260506105705 22 272 19.3 32.2 0.00 0.10 0.00 32 1011.3
20260506105206 22 267 19.3 32.2 0.00 0.10 0.00 31 1011.3
20260506104705 22 253 16.1 27.4 0.00 0.10 0.00 32 1011.4
20260506104553 22 226 19.3 32.2 0.00 0.10 0.00 32 1011.7
20260506104205 22 204 14.5 30.6 0.00 0.10 0.00 32 1011.4
20260506103205 22 263 14.5 30.6 0.00 0.10 0.00 35 1011.6
20260506103042 21 302 11.3 30.6 0.00 0.10 0.00 35 1012.0
20260506102706 22 304 14.5 27.4 0.00 0.10 0.00 36 1011.6
20260506102205 22 155 14.5 25.7 0.00 0.10 0.00 35 1011.6
20260506101705 22 321 14.5 30.6 0.00 0.10 0.00 37 1011.5
20260506101547 21 320 16.1 25.7 0.00 0.10 0.00 36 1011.9
20260506100705 21 280 14.5 32.2 0.00 0.10 0.00 37 1011.5
20260506100233 21 280 16.1 32.2 0.00 0.10 0.00 37 1011.6
20260506100035 21 281 11.3 32.2 0.00 0.10 0.00 37 1011.8
20260506094705 20 263 16.1 35.4 0.00 0.10 0.00 39 1011.4
20260506094533 20 280 17.7 32.2 0.00 0.10 0.00 39 1011.8
20260506094205 20 261 17.7 35.4 0.00 0.10 0.00 41 1011.3
20260506093205 20 255 17.7 32.2 0.00 0.10 0.00 40 1011.3
20260506093027 20 268 19.3 32.2 0.00 0.10 0.00 41 1011.7
20260506092705 20 241 19.3 32.2 0.00 0.10 0.00 42 1011.4
20260506091705 20 294 17.7 30.6 0.00 0.10 0.00 41 1011.3
20260506091523 19 241 17.7 30.6 0.00 0.10 0.00 42 1011.7
20260506091205 19 305 17.7 35.4 0.00 0.10 0.00 44 1011.3
20260506090705 19 250 20.9 35.4 0.00 0.10 0.00 44 1011.3
20260506090205 18 261 20.9 35.4 0.00 0.10 0.00 44 1011.3
20260506090018 18 275 22.5 35.4 0.00 0.10 0.00 44 1011.6
20260506085705 18 246 19.3 35.4 0.00 0.10 0.00 45 1011.3
20260506085206 18 263 20.9 37.0 0.00 0.10 0.00 47 1011.2
20260506084705 18 302 20.9 37.0 0.00 0.10 0.00 46 1011.3
20260506084515 18 263 19.3 38.6 0.00 0.10 0.00 46 1011.5
20260506084205 18 269 20.9 37.0 0.00 0.10 0.00 46 1011.3
20260506083705 18 257 20.9 35.4 0.00 0.10 0.00 46 1011.3
20260506083205 18 267 20.9 35.4 0.00 0.10 0.00 47 1011.3
20260506083011 17 257 19.3 35.4 0.00 0.10 0.00 47 1011.6
20260506082705 18 195 19.3 35.4 0.00 0.10 0.00 47 1011.3
20260506082205 18 294 19.3 30.6 0.00 0.10 0.00 48 1011.3
20260506081706 18 280 16.1 32.2 0.00 0.10 0.00 48 1011.3
20260506081507 17 286 16.1 30.6 0.00 0.10 0.00 49 1011.5
20260506081206 17 319 14.5 32.2 0.00 0.10 0.00 49 1011.3
20260506080705 17 265 16.1 30.6 0.00 0.10 0.00 50 1011.3
20260506080206 17 292 17.7 30.6 0.00 0.10 0.00 50 1011.3
20260506073205 16 263 17.7 30.6 0.00 0.10 0.00 54 1011.3
20260506073055 16 234 17.7 30.6 0.00 0.10 0.00 54 1011.7
20260506072705 16 294 17.7 32.2 0.00 0.10 0.00 55 1011.3
20260506072206 16 295 16.1 32.2 0.00 0.10 0.00 55 1011.4
20260506071705 16 284 14.5 32.2 0.00 0.10 0.00 57 1011.3
20260506071550 15 283 12.9 32.2 0.00 0.10 0.00 56 1011.6
20260506071205 15 248 16.1 27.4 0.00 0.10 0.00 57 1011.3
20260506070706 15 263 17.7 27.4 0.00 0.10 0.00 58 1011.3
20260506070205 15 262 16.1 27.4 0.00 0.10 0.00 58 1011.3
20260506062206 13 271 17.7 33.8 0.00 0.10 0.00 62 1011.0
20260506061705 13 292 17.7 33.8 0.00 0.10 0.00 63 1010.9
20260506061533 12 259 14.5 33.8 0.00 0.10 0.00 64 1011.1
20260506061227 12 279 19.3 32.2 0.00 0.10 0.00 64 1010.8
20260506060705 12 256 17.7 32.2 0.00 0.10 0.00 65 1010.8
20260506060206 12 232 17.7 32.2 0.00 0.10 0.00 66 1010.7
20260506051205 11 268 17.7 24.1 0.00 0.10 0.00 68 1010.2
20260506050706 11 252 14.5 24.1 0.00 0.10 0.00 68 1010.2
20260506050205 10 290 12.9 20.9 0.00 0.10 0.00 68 1010.1
20260506044513 10 296 9.7 17.7 0.00 0.10 0.00 68 1010.4
20260506044206 10 293 9.7 17.7 0.00 0.10 0.00 68 1010.1
20260506043706 10 259 11.3 19.3 0.00 0.10 0.00 68 1010.1
20260506043009 10 261 12.9 19.3 0.00 0.10 0.00 68 1010.5
20260506042705 10 255 9.7 19.3 0.00 0.10 0.00 68 1010.1
20260506042206 10 298 9.7 19.3 0.00 0.10 0.00 68 1010.1
20260506041706 10 228 9.7 19.3 0.00 0.10 0.00 68 1010.0
20260506041508 10 285 8.0 19.3 0.00 0.10 0.00 68 1010.4
20260506041206 10 256 11.3 17.7 0.00 0.10 0.00 68 1010.1
20260506040106 10 244 11.3 16.1 0.00 0.10 0.00 68 1010.6
20260506035706 10 301 11.3 14.5 0.00 0.10 0.00 68 1010.2
20260506035205 10 263 9.7 14.5 0.00 0.10 0.00 68 1010.2
20260506034706 10 275 9.7 16.1 0.00 0.10 0.00 68 1010.1
20260506034505 10 275 8.0 16.1 0.00 0.10 0.00 68 1010.6
20260506033705 11 281 8.0 14.5 0.00 0.10 0.00 68 1010.1
20260506033206 11 279 8.0 14.5 0.00 0.10 0.00 68 1010.1
20260506033004 10 301 4.8 12.9 0.00 0.10 0.00 68 1010.5
20260506032706 11 300 8.0 14.5 0.00 0.10 0.00 68 1010.2
20260506031706 11 274 8.0 14.5 0.00 0.10 0.00 68 1010.2
20260506031502 10 269 8.0 14.5 0.00 0.10 0.00 68 1010.6
20260506031206 11 269 8.0 14.5 0.00 0.10 0.00 68 1010.2
20260506030205 11 281 6.4 17.7 0.00 0.10 0.00 68 1010.3
20260506030001 11 267 6.4 14.5 0.00 0.10 0.00 68 1010.6
20260506025206 11 278 8.0 16.1 0.00 0.10 0.00 68 1010.3
20260506024705 11 248 8.0 17.7 0.00 0.10 0.00 68 1010.3
20260506024602 11 285 8.0 16.1 0.00 0.10 0.00 68 1010.7
20260506023206 11 265 9.7 25.7 0.00 0.10 0.00 68 1010.1
20260506023101 11 247 8.0 25.7 0.00 0.10 0.00 68 1010.5
20260506022206 11 279 11.3 19.3 0.00 0.10 0.00 68 1010.0
20260506021705 11 246 9.7 16.1 0.00 0.10 0.00 68 1010.0
20260506021610 11 275 9.7 19.3 0.00 0.10 0.00 68 1010.3
20260506020705 11 265 4.8 14.5 0.00 0.10 0.00 68 1009.9
20260506020205 11 254 4.8 14.5 0.00 0.10 0.00 68 1010.0
20260506020058 11 246 3.2 14.5 0.00 0.10 0.00 68 1010.2
20260506015705 11 276 6.4 19.3 0.00 0.10 0.00 68 1009.9
20260506015205 11 292 8.0 19.3 0.00 0.10 0.00 68 1009.9
20260506014558 11 271 6.4 22.5 0.00 0.10 0.00 68 1010.2
20260506014206 11 277 12.9 22.5 0.00 0.10 0.00 68 1009.9
20260506013705 11 293 11.3 20.9 0.00 0.10 0.00 68 1009.7
20260506013206 11 263 11.3 19.3 0.00 0.10 0.00 68 1009.8
20260506013104 11 287 9.7 19.3 0.00 0.10 0.00 69 1010.1
20260506012205 11 267 12.9 25.7 0.00 0.10 0.00 69 1009.8
20260506011555 11 324 11.3 27.4 0.00 0.10 0.00 69 1010.2
20260506010705 11 300 16.1 27.4 0.00 0.10 0.00 69 1009.9
20260506010110 11 296 14.5 27.4 0.00 0.10 0.00 69 1010.3
20260506005705 11 246 9.7 17.7 0.00 0.10 0.00 69 1010.0
20260506005205 11 275 8.0 17.7 0.00 0.10 0.00 68 1010.0
20260506004706 11 265 8.0 16.1 0.00 0.10 0.00 68 1010.1
20260506004552 11 334 8.0 14.5 0.00 0.13 0.00 68 1010.4
20260506004205 11 271 8.0 16.1 0.00 0.10 0.00 68 1010.1
20260506003706 11 267 8.0 17.7 0.00 0.10 0.00 68 1010.1
20260506003205 11 303 9.7 20.9 0.00 0.10 0.00 68 1010.1
20260506003047 11 277 6.4 17.7 0.00 0.13 0.00 68 1010.5
20260506001706 11 267 12.9 20.9 0.00 0.13 0.00 68 1010.2
20260506001547 11 266 11.3 20.9 0.00 0.13 0.00 68 1010.6
20260506001205 11 283 12.9 20.9 0.00 0.13 0.00 68 1010.3
20260506000205 11 271 12.9 20.9 0.00 0.13 0.00 68 1010.3
20260506000043 11 294 11.3 22.5 0.00 0.13 0.00 68 1010.7
20260505235705 11 287 11.3 19.3 0.00 0.13 0.00 68 1010.3
20260505235206 11 262 11.3 24.1 0.00 0.13 0.00 68 1010.4
20260505234705 11 279 11.3 24.1 0.00 0.13 0.00 68 1010.4
20260505234601 11 265 11.3 24.1 0.00 0.13 0.00 68 1010.9
20260505234205 11 288 12.9 22.5 0.00 0.13 0.00 68 1010.5
20260505233706 12 265 12.9 19.3 0.00 0.13 0.00 68 1010.5
20260505233205 12 248 11.3 24.1 0.00 0.13 0.00 68 1010.6
20260505233040 11 281 11.3 19.3 0.00 0.13 0.00 68 1010.9
20260505232706 12 250 12.9 24.1 0.00 0.13 0.00 68 1010.7
20260505232206 12 269 12.9 22.5 0.00 0.13 0.00 68 1010.7
20260505231705 12 284 12.9 24.1 0.00 0.13 0.00 68 1010.8
20260505231536 11 266 11.3 22.5 0.00 0.13 0.00 68 1011.1
20260505231206 12 269 12.9 24.1 0.00 0.13 0.00 68 1010.7
20260505230705 12 305 14.5 24.1 0.00 0.13 0.00 68 1010.8
20260505230205 12 263 14.5 24.1 0.00 0.13 0.00 68 1010.9
20260505230035 11 252 16.1 24.1 0.00 0.13 0.00 68 1011.2
20260505225705 12 268 12.9 20.9 0.00 0.13 0.00 68 1010.9
20260505225206 12 271 11.3 20.9 0.00 0.13 0.00 68 1011.0
20260505224535 12 290 11.3 20.9 0.00 0.13 0.00 68 1011.3
20260505223705 12 278 11.3 20.9 0.00 0.13 0.00 68 1011.0
20260505223205 12 245 11.3 20.9 0.00 0.13 0.00 68 1011.1
20260505223029 12 285 9.7 20.9 0.00 0.13 0.00 68 1011.4
20260505221705 12 263 9.7 22.5 0.00 0.13 0.00 68 1011.3
20260505221627 12 279 8.0 22.5 0.00 0.13 0.00 68 1011.6
20260505221205 12 263 8.0 16.1 0.00 0.13 0.00 68 1011.3
20260505220026 12 281 9.7 17.7 0.00 0.13 0.00 68 1011.9
20260505215706 12 254 9.7 17.7 0.00 0.13 0.13 68 1011.6
20260505215206 12 252 9.7 17.7 0.00 0.13 0.13 68 1011.6
20260505214705 12 277 11.3 20.9 0.00 0.13 0.13 68 1011.6
20260505214546 12 283 9.7 17.7 0.00 0.13 0.13 68 1012.0
20260505214206 12 305 11.3 20.9 0.00 0.13 0.13 68 1011.7
20260505213705 12 277 11.3 27.4 0.00 0.13 0.13 68 1011.7
20260505213205 12 257 12.9 27.4 0.00 0.13 0.13 68 1011.7
20260505213022 12 238 9.7 24.1 0.00 0.13 0.13 68 1012.0
20260505212705 12 252 16.1 27.4 0.00 0.13 0.13 68 1011.7
20260505212205 12 259 16.1 24.1 0.00 0.13 0.13 68 1011.7
20260505211705 12 273 16.1 22.5 0.00 0.13 0.13 68 1011.7
20260505211521 12 288 14.5 22.5 0.00 0.13 0.13 68 1012.0
20260505210705 12 259 12.9 20.9 0.00 0.13 0.13 68 1011.7
20260505210020 12 250 12.9 20.9 0.03 0.13 0.13 68 1012.1
20260505205705 12 273 9.7 25.7 0.03 0.13 0.13 68 1011.8
20260505204705 12 269 6.4 14.5 0.03 0.13 0.13 67 1012.0
20260505204520 12 234 6.4 14.5 0.03 0.13 0.13 67 1012.4
20260505204206 12 248 4.8 14.5 0.03 0.13 0.13 68 1012.1
20260505203705 12 245 4.8 12.9 0.03 0.13 0.13 68 1012.1
20260505203205 12 250 4.8 12.9 0.03 0.13 0.13 67 1012.1
20260505203031 12 228 6.4 12.9 0.03 0.13 0.13 67 1012.5
20260505202705 12 273 4.8 14.5 0.03 0.13 0.13 67 1012.1
20260505202206 12 274 6.4 14.5 0.03 0.13 0.13 68 1012.2
20260505201705 12 321 6.4 14.5 0.03 0.13 0.13 68 1012.2
20260505201524 12 232 6.4 14.5 0.03 0.13 0.13 67 1012.5
20260505201206 12 294 6.4 14.5 0.05 0.13 0.13 67 1012.2
20260505200016 12 281 3.2 14.5 0.05 0.10 0.10 67 1012.4
20260505195705 12 204 8.0 14.5 0.05 0.10 0.10 67 1012.0
20260505195206 12 292 8.0 14.5 0.05 0.10 0.10 67 1011.8
20260505194705 12 247 6.4 14.5 0.05 0.10 0.10 67 1011.6
20260505194515 12 215 6.4 12.9 0.05 0.10 0.10 67 1011.9
20260505194205 12 253 8.0 19.3 0.05 0.10 0.10 67 1011.4
20260505193705 12 252 9.7 19.3 0.05 0.10 0.10 67 1011.2
20260505193205 12 289 9.7 19.3 0.05 0.10 0.10 67 1011.2
20260505193012 12 259 9.7 19.3 0.05 0.10 0.10 67 1011.5
20260505192706 12 263 8.0 14.5 0.05 0.10 0.10 67 1011.3
20260505192206 12 249 6.4 14.5 0.05 0.10 0.10 67 1011.2
20260505191705 12 259 8.0 20.9 0.03 0.08 0.08 67 1011.1
20260505191511 12 285 6.4 14.5 0.05 0.10 0.10 67 1011.4
20260505190705 13 252 9.7 20.9 0.03 0.08 0.08 67 1010.9
20260505190220 12 263 9.7 17.7 0.00 0.05 0.05 67 1011.0
20260505190011 12 273 8.0 17.7 0.00 0.05 0.05 67 1011.2
20260505184706 13 293 12.9 25.7 0.00 0.05 0.05 67 1010.6
20260505184511 12 287 8.0 25.7 0.00 0.05 0.05 67 1011.0
20260505184206 13 251 14.5 25.7 0.00 0.05 0.05 67 1010.7
20260505183706 13 269 14.5 27.4 0.00 0.05 0.05 66 1010.7
20260505183205 13 277 16.1 30.6 0.00 0.05 0.05 66 1010.7
20260505183015 12 265 12.9 27.4 0.00 0.05 0.05 66 1011.0
20260505182705 13 265 19.3 30.6 0.00 0.05 0.05 66 1010.6
20260505181705 13 271 16.1 25.7 0.00 0.05 0.05 66 1010.5
20260505181509 13 242 16.1 24.1 0.00 0.05 0.05 66 1010.9
20260505181205 13 269 16.1 25.7 0.00 0.05 0.05 66 1010.6
20260505180705 13 263 16.1 27.4 0.00 0.05 0.05 66 1010.7
20260505180205 13 269 16.1 27.4 0.00 0.05 0.05 66 1010.7
20260505180009 13 272 14.5 27.4 0.00 0.05 0.05 65 1011.1
20260505175705 13 251 16.1 29.0 0.00 0.05 0.05 65 1010.8
20260505175205 13 263 16.1 35.4 0.00 0.05 0.05 65 1010.7
20260505174705 13 256 17.7 35.4 0.00 0.05 0.05 65 1010.6
20260505174513 13 257 17.7 33.8 0.00 0.05 0.05 65 1010.9
20260505174205 13 244 17.7 32.2 0.00 0.05 0.05 64 1010.6
20260505173705 14 266 17.7 32.2 0.00 0.05 0.05 63 1010.5
20260505173205 14 285 14.5 32.2 0.00 0.05 0.05 63 1010.5
20260505173012 13 259 17.7 32.2 0.00 0.05 0.05 63 1010.8
20260505172705 14 281 12.9 30.6 0.00 0.05 0.05 62 1010.6
20260505172205 15 279 11.3 27.4 0.00 0.05 0.05 61 1010.6
20260505171705 15 223 11.3 27.4 0.00 0.05 0.05 60 1010.6
20260505171512 15 244 8.0 27.4 0.00 0.05 0.05 60 1011.0
20260505170705 15 307 14.5 33.8 0.00 0.05 0.05 58 1010.6
20260505170205 16 283 14.5 33.8 0.00 0.05 0.05 58 1010.6
20260505170009 16 215 16.1 41.8 0.00 0.05 0.05 58 1011.0
20260505165705 16 290 9.7 14.5 0.00 0.05 0.05 60 1010.6
20260505165206 16 216 3.2 11.3 0.00 0.05 0.05 61 1010.1
20260505164705 16 229 3.2 14.5 0.00 0.05 0.05 61 1009.7
20260505164508 16 211 0.0 11.3 0.00 0.10 0.05 61 1010.0
20260505164206 16 163 3.2 14.5 0.03 0.05 0.05 61 1009.4
20260505163705 16 111 3.2 9.7 0.03 0.05 0.05 61 1009.6
20260505163205 16 100 1.6 9.7 0.05 0.05 0.05 62 1009.6
20260505163008 16 76 0.0 9.7 0.05 0.10 0.05 62 1010.0
20260505162705 16 153 3.2 9.7 0.05 0.08 0.05 62 1009.6
20260505162233 16 220 1.6 11.3 0.05 0.08 0.05 63 1009.6
20260505161705 16 211 3.2 11.3 0.05 0.08 0.05 63 1009.6
20260505161506 16 201 0.0 11.3 0.05 0.10 0.05 63 1010.0
20260505160706 17 241 1.6 6.4 0.05 0.10 0.05 63 1009.8
20260505160205 17 229 1.6 11.3 0.05 0.10 0.05 64 1009.8
20260505153206 17 115 3.2 12.9 0.00 0.15 0.03 60 1009.9
20260505153004 17 189 1.6 9.7 0.00 0.15 0.03 60 1010.2
20260505152705 17 23 3.2 12.9 0.00 0.15 0.03 59 1009.9
20260505152206 17 212 1.6 12.9 0.00 0.15 0.03 58 1009.9
20260505151705 17 71 3.2 14.5 0.00 0.15 0.03 58 1009.8
20260505151504 17 141 1.6 9.7 0.00 0.15 0.03 57 1010.2
20260505151206 17 103 4.8 14.5 0.00 0.15 0.03 57 1009.8
20260505150705 17 126 4.8 16.1 0.00 0.15 0.03 57 1009.8
20260505150205 17 59 4.8 16.1 0.00 0.15 0.03 56 1009.8